Location: Black Creek
(40.9000°S, 175.5500°E)
Time: 17:52:22
(UTC+00:00)

USA 215 - Pass Details

Date: 04 August 2024
Orbit: 1099 x 1108 km, 123.0° (Epoch: 16 September)

Event Time Altitude Azimuth Distance (km) Brightness Sun altitude
Rises 17:11:53 0° 135° (SE) 3,953 6.8 -24.5°
Reaches altitude 10° 17:14:27 10° 140° (SE) 2,991 6.0 -24.0°
Maximum altitude 17:20:47 51° 213° (SSW) 1,379 3.5 -22.8°
Enters shadow 17:22:37 40° 256° (WSW) 1,579 3.6 -22.5°
